Weather History for Buckhannon, WV

Change the Weather History Date:

Sunday, June 16, 2013

  Actual Average (KEKN) Record (KEKN)
Temperature  
Mean Temperature 66 °F 67 °F  
Max Temperature 71 °F 78 °F 93 °F (1952)
Min Temperature 60 °F 55 °F 39 °F (1917)
Degree Days  
Heating Degree Days 0 1  
Month to date heating degree days 42  
Since 1 June heating degree days 42  
Since 1 July heating degree days 5839  
Cooling Degree Days 0 3  
Month to date cooling degree days 36  
Year to date cooling degree days 59  
Since 1 June cooling degree days 36  
Growing Degree Days 16 (Base 50)    
Moisture  
Dew Point 63 °F    
Average Humidity 90    
Maximum Humidity 100    
Minimum Humidity 68    
Precipitation  
Precipitation 0.11 in 0.15 in 1.78 in (1938)
Month to date precipitation 2.26  
Year to date precipitation 21.47  
Snow  
Snow 0.00 in - - ()
Month to date snowfall  
Since 1 September snowfall  
Snow Depth -    
Sea Level Pressure  
Sea Level Pressure 30.06 in    
Wind  
Wind Speed 4 mph (SW)    
Max Wind Speed 15 mph    
Max Gust Speed 20 mph    
Visibility 10 miles    
Events Rain    
T = Trace of Precipitation, MM = Missing Value Source: NWS Daily Summary

Daily Weather History Graph

Daily Weather History Graph

Search for Another Location

Airport:

Trip Planner

Search our weather history database for the weather conditions in past years. The results will help you decide how hot, cold, wet, or windy it might be!

Date:

Astronomy

Jun. 16, 2013 Rise Set
Actual Time 5:54 AM EDT 8:48 PM EDT
Civil Twilight 5:22 AM EDT 9:21 PM EDT
Nautical Twilight 4:42 AM EDT 10:01 PM EDT
Astronomical Twilight 3:55 AM EDT 10:48 PM EDT
Moon 1:25 PM EDT (6/16) 12:56 AM EDT (6/16)
Length of Visible Light 15h 58m
Length of Day
14h 53m
Waxing Crescent, 49% of the Moon is Illuminated
Jun 16
Waxing Crescent
Jun 16
First Quarter
Jun 23
Full
Jun 30
Last Quarter
Jul 8
New

Hourly Weather History & Observations

Time (EDT) Temp. Dew Point Humidity Pressure Visibility Wind Dir Wind Speed Gust Speed Precip Events Conditions
12:15 AM 60.8 °F 60.8 °F 100% 30.10 in 10.0 mi Calm Calm - N/A   Clear
12:35 AM 60.8 °F 60.8 °F 100% 30.08 in 10.0 mi Calm Calm - N/A   Clear
12:55 AM 60.8 °F 60.8 °F 100% 30.08 in 10.0 mi Calm Calm - N/A   Clear
1:15 AM 60.8 °F 60.8 °F 100% 30.09 in 10.0 mi Calm Calm - N/A   Clear
1:35 AM 60.8 °F 59.0 °F 94% 30.09 in 10.0 mi Calm Calm - N/A   Clear
1:55 AM 60.8 °F 60.8 °F 100% 30.08 in 10.0 mi Calm Calm - N/A   Clear
2:15 AM 60.8 °F 60.8 °F 100% 30.07 in 10.0 mi Calm Calm - N/A   Clear
2:35 AM 60.8 °F 59.0 °F 94% 30.07 in 10.0 mi Calm Calm - N/A   Clear
2:55 AM 60.8 °F 59.0 °F 94% 30.07 in 10.0 mi Calm Calm - N/A   Clear
3:15 AM 60.8 °F 57.2 °F 88% 30.06 in 10.0 mi Calm Calm - N/A   Clear
3:35 AM 60.8 °F 57.2 °F 88% 30.06 in 10.0 mi Calm Calm - N/A   Clear
3:55 AM 60.8 °F 57.2 °F 88% 30.06 in 10.0 mi Calm Calm - N/A   Clear
4:15 AM 60.8 °F 57.2 °F 88% 30.05 in 10.0 mi Calm Calm - N/A   Scattered Clouds
4:35 AM 62.6 °F 57.2 °F 82% 30.05 in 10.0 mi Calm Calm - N/A   Scattered Clouds
4:55 AM 60.8 °F 57.2 °F 88% 30.05 in 10.0 mi Calm Calm - N/A   Partly Cloudy
5:15 AM 60.8 °F 57.2 °F 88% 30.05 in 10.0 mi Calm Calm - N/A   Partly Cloudy
5:35 AM 62.6 °F 57.2 °F 82% 30.05 in 10.0 mi South 3.5 mph - N/A   Mostly Cloudy
5:55 AM 62.6 °F 57.2 °F 82% 30.05 in 10.0 mi South 5.8 mph - N/A   Scattered Clouds
6:15 AM 62.6 °F 57.2 °F 82% 30.05 in 10.0 mi SSW 5.8 mph - N/A   Scattered Clouds
6:35 AM 64.4 °F 57.2 °F 77% 30.06 in 10.0 mi SSW 4.6 mph - N/A   Scattered Clouds
6:55 AM 64.4 °F 55.4 °F 73% 30.06 in 10.0 mi SW 4.6 mph - N/A   Scattered Clouds
7:15 AM 66.2 °F 57.2 °F 73% 30.06 in 10.0 mi SSW 10.4 mph - N/A   Partly Cloudy
7:35 AM 68.0 °F 57.2 °F 68% 30.06 in 10.0 mi SSW 9.2 mph - N/A   Scattered Clouds
7:55 AM 68.0 °F 57.2 °F 68% 30.06 in 10.0 mi SSW 10.4 mph - N/A   Partly Cloudy
8:15 AM 69.8 °F 59.0 °F 68% 30.06 in 10.0 mi SW 10.4 mph - N/A   Partly Cloudy
8:35 AM 69.8 °F 60.8 °F 73% 30.06 in 10.0 mi SSW 10.4 mph - N/A   Scattered Clouds
8:55 AM 69.8 °F 60.8 °F 73% 30.07 in 10.0 mi SW 12.7 mph 16.1 mph N/A   Mostly Cloudy
9:15 AM 69.8 °F 60.8 °F 73% 30.08 in 10.0 mi SW 10.4 mph - N/A   Mostly Cloudy
9:35 AM 69.8 °F 60.8 °F 73% 30.08 in 10.0 mi WSW 9.2 mph - N/A   Mostly Cloudy
9:55 AM 68.0 °F 62.6 °F 83% 30.09 in 4.0 mi WSW 10.4 mph - N/A Rain Heavy Rain
10:15 AM 64.4 °F 64.4 °F 100% 30.08 in 3.0 mi SSW 8.1 mph - 0.02 in   Light Drizzle
10:35 AM 64.4 °F 64.4 °F 100% 30.08 in 10.0 mi SSW 6.9 mph - 0.02 in   Mostly Cloudy
10:55 AM 66.2 °F 64.4 °F 94% 30.07 in 7.0 mi SSW 5.8 mph - 0.02 in Rain Light Rain
11:15 AM 66.2 °F 66.2 °F 100% 30.07 in 9.0 mi SSW 6.9 mph - N/A   Mostly Cloudy
11:35 AM 69.8 °F 66.2 °F 88% 30.07 in 10.0 mi SSW 6.9 mph - N/A   Scattered Clouds
11:55 AM 68.0 °F 66.2 °F 94% 30.07 in 10.0 mi SW 9.2 mph - N/A   Mostly Cloudy
12:15 PM 69.8 °F 66.2 °F 88% 30.06 in 10.0 mi SSW 8.1 mph - N/A   Mostly Cloudy
12:35 PM 69.8 °F 66.2 °F 88% 30.07 in 10.0 mi SW 6.9 mph - N/A   Mostly Cloudy
12:55 PM 69.8 °F 66.2 °F 88% 30.07 in 10.0 mi SSW 10.4 mph - N/A   Mostly Cloudy
1:15 PM 66.2 °F 66.2 °F 100% 30.06 in 1.8 mi SSW 8.1 mph - 0.04 in Rain Light Rain
1:35 PM 66.2 °F 66.2 °F 100% 30.06 in 9.0 mi SSW 10.4 mph 17.3 mph 0.05 in   Scattered Clouds
1:55 PM 68.0 °F 68.0 °F 100% 30.05 in 10.0 mi SSW 10.4 mph - 0.05 in   Clear
2:15 PM 68.0 °F 66.2 °F 94% 30.04 in 10.0 mi SSW 10.4 mph - N/A   Partly Cloudy
2:35 PM 68.0 °F 66.2 °F 94% 30.03 in 10.0 mi SW 10.4 mph 16.1 mph N/A   Partly Cloudy
2:55 PM 69.8 °F 66.2 °F 88% 30.05 in 10.0 mi WSW 10.4 mph - N/A   Partly Cloudy
3:15 PM 71.6 °F 66.2 °F 83% 30.04 in 10.0 mi WSW 8.1 mph - N/A   Partly Cloudy
3:35 PM 71.6 °F 66.2 °F 83% 30.04 in 10.0 mi SW 11.5 mph - N/A   Clear
3:55 PM 71.6 °F 66.2 °F 83% 30.05 in 10.0 mi WSW 9.2 mph - N/A   Partly Cloudy
4:15 PM 71.6 °F 66.2 °F 83% 30.05 in 10.0 mi SW 15.0 mph 19.6 mph N/A   Partly Cloudy
4:35 PM 71.6 °F 66.2 °F 83% 30.05 in 10.0 mi SW 10.4 mph 16.1 mph N/A   Clear
4:55 PM 69.8 °F 66.2 °F 88% 30.05 in 10.0 mi WSW 12.7 mph 18.4 mph N/A   Clear
5:15 PM 69.8 °F 66.2 °F 88% 30.05 in 10.0 mi WSW 9.2 mph - N/A   Clear
5:35 PM 69.8 °F 66.2 °F 88% 30.05 in 10.0 mi WSW 8.1 mph - N/A   Clear
5:55 PM 69.8 °F 66.2 °F 88% 30.05 in 10.0 mi WSW 9.2 mph - N/A   Clear
6:15 PM 69.8 °F 66.2 °F 88% 30.04 in 8.0 mi SW 9.2 mph - N/A Rain Light Rain
6:35 PM 69.8 °F 66.2 °F 88% 30.04 in 9.0 mi WSW 6.9 mph - N/A   Light Drizzle
6:55 PM 69.8 °F 66.2 °F 88% 30.05 in 10.0 mi West 8.1 mph - N/A   Scattered Clouds
7:15 PM 69.8 °F 68.0 °F 94% 30.05 in 6.0 mi SW 8.1 mph - N/A Rain Light Rain
7:35 PM 66.2 °F 66.2 °F 100% 30.05 in 9.0 mi SW 11.5 mph - 0.04 in   Light Drizzle
7:55 PM 66.2 °F 64.4 °F 94% 30.05 in 10.0 mi SW 6.9 mph - 0.04 in   Overcast
8:15 PM 66.2 °F 64.4 °F 94% 30.05 in 10.0 mi SSW 4.6 mph - N/A   Overcast
8:35 PM 66.2 °F 64.4 °F 94% 30.05 in 10.0 mi SSW 4.6 mph - N/A   Overcast
8:55 PM 66.2 °F 64.4 °F 94% 30.05 in 10.0 mi SSW 5.8 mph - N/A   Mostly Cloudy
9:15 PM 66.2 °F 64.4 °F 94% 30.05 in 10.0 mi Calm Calm - N/A   Overcast
9:35 PM 66.2 °F 64.4 °F 94% 30.05 in 10.0 mi Calm Calm - N/A   Mostly Cloudy
9:55 PM 66.2 °F 66.2 °F 100% 30.06 in 10.0 mi Calm Calm - N/A   Mostly Cloudy
10:15 PM 66.2 °F 66.2 °F 100% 30.05 in 10.0 mi Calm Calm - N/A   Mostly Cloudy
10:35 PM 66.2 °F 66.2 °F 100% 30.06 in 10.0 mi Calm Calm - N/A   Mostly Cloudy
10:55 PM 66.2 °F 66.2 °F 100% 30.05 in 10.0 mi Calm Calm - N/A   Mostly Cloudy
11:15 PM 66.2 °F 66.2 °F 100% 30.05 in 8.0 mi Calm Calm - N/A   Mostly Cloudy
11:35 PM 64.4 °F 64.4 °F 100% 30.04 in 9.0 mi Calm Calm - N/A   Mostly Cloudy
11:55 PM 66.2 °F 66.2 °F 100% 30.04 in 10.0 mi Calm Calm - N/A   Mostly Cloudy